VLG95SM LEBL-LYTV

Flight info

Callsign VLG95SM
Flight time 1h 49m
Altitude 37000
Route DIPES N725 OSPOK DCT NOLVI DCT ORKUM/N0431F360 DCT ELSAG DCT ALG DCT LAT/N0429F370 DCT TAZ
Aircraft A320/M-SDE3FGHIRWY/LB1

Departure

Time 2026-05-06 08:45
Airport Josep Tarradellas Barcelona-El Prat Airport (LEBL)

Arrival

Time 2026-05-06 10:35
Airport Tivat Airport (LYTV)
Time Latitude Longitude Altitude Speed Heading
2026-05-06 08:12 41.28978 2.07901 21 ft 0 kts 335°
2026-05-06 08:35 41.28977 2.07901 19 ft 2 kts 335°
2026-05-06 08:36 41.28954 2.07914 20 ft 4 kts 340°
2026-05-06 08:36 41.28928 2.07925 21 ft 4 kts 353°
2026-05-06 08:36 41.28904 2.07923 19 ft 4 kts 38°
2026-05-06 08:36 41.28897 2.07914 21 ft 0 kts 65°
2026-05-06 08:39 41.28898 2.07917 19 ft 2 kts 65°
2026-05-06 08:39 41.28915 2.07965 19 ft 9 kts 66°
2026-05-06 08:40 41.28937 2.08031 20 ft 7 kts 66°
2026-05-06 08:40 41.28954 2.08100 19 ft 8 kts 94°
2026-05-06 08:40 41.28909 2.08144 19 ft 12 kts 156°
2026-05-06 08:40 41.28820 2.08197 17 ft 15 kts 155°
2026-05-06 08:41 41.28722 2.08238 18 ft 13 kts 154°
2026-05-06 08:41 41.28727 2.08336 16 ft 15 kts 65°
2026-05-06 08:41 41.28784 2.08495 18 ft 23 kts 66°
2026-05-06 08:41 41.28858 2.08715 17 ft 27 kts 65°
2026-05-06 08:42 41.28937 2.08948 17 ft 28 kts 65°
2026-05-06 08:42 41.29019 2.09184 16 ft 26 kts 65°
2026-05-06 08:42 41.29094 2.09405 17 ft 27 kts 65°
2026-05-06 08:42 41.29172 2.09635 17 ft 28 kts 66°
2026-05-06 08:43 41.29251 2.09865 19 ft 23 kts 66°
2026-05-06 08:43 41.29306 2.09990 17 ft 15 kts 64°
2026-05-06 08:43 41.29356 2.10138 17 ft 21 kts 65°
2026-05-06 08:43 41.29326 2.10272 13 ft 16 kts 150°
2026-05-06 08:44 41.29238 2.10319 14 ft 12 kts 173°
2026-05-06 08:44 41.29204 2.10285 16 ft 3 kts 246°
2026-05-06 08:44 41.29170 2.10183 18 ft 37 kts 246°
2026-05-06 08:44 41.28960 2.09565 19 ft 106 kts 245°
2026-05-06 08:45 41.28582 2.08461 26 ft 158 kts 245°
2026-05-06 08:45 41.28091 2.07075 506 ft 166 kts 240°
2026-05-06 08:45 41.27215 2.06068 1175 ft 172 kts 198°
2026-05-06 08:45 41.25970 2.05794 1517 ft 194 kts 183°
2026-05-06 08:46 41.24556 2.05757 1875 ft 214 kts 180°
2026-05-06 08:46 41.23045 2.05781 2579 ft 220 kts 180°
2026-05-06 08:46 41.21485 2.05905 3150 ft 236 kts 167°
2026-05-06 08:46 41.19985 2.07037 3473 ft 264 kts 134°
2026-05-06 08:47 41.19126 2.09241 4056 ft 277 kts 103°
2026-05-06 08:47 41.18745 2.11736 4934 ft 280 kts 100°
2026-05-06 08:47 41.18460 2.14317 5753 ft 284 kts 98°
2026-05-06 08:47 41.18229 2.16941 6578 ft 288 kts 98°
2026-05-06 08:48 41.17995 2.19578 7344 ft 293 kts 98°
2026-05-06 08:48 41.17721 2.22294 8123 ft 298 kts 99°
2026-05-06 08:48 41.17417 2.25031 8912 ft 302 kts 99°
2026-05-06 08:48 41.17095 2.27796 9703 ft 306 kts 99°
2026-05-06 08:49 41.16758 2.30616 10333 ft 315 kts 100°
2026-05-06 08:49 41.16397 2.33589 10555 ft 338 kts 100°
2026-05-06 08:49 41.16007 2.36766 10853 ft 356 kts 100°
2026-05-06 08:49 41.15611 2.40000 11449 ft 363 kts 100°
2026-05-06 08:50 41.15205 2.43325 12133 ft 367 kts 100°
2026-05-06 08:50 41.14795 2.46691 12817 ft 371 kts 100°
2026-05-06 08:50 41.14378 2.50101 13495 ft 375 kts 100°
2026-05-06 08:50 41.13956 2.53532 14115 ft 379 kts 101°
2026-05-06 08:51 41.13529 2.57002 14673 ft 384 kts 101°
2026-05-06 08:51 41.13096 2.60516 15218 ft 389 kts 101°
2026-05-06 08:51 41.12655 2.64078 15764 ft 394 kts 102°
2026-05-06 08:51 41.12214 2.67641 16290 ft 399 kts 102°
2026-05-06 08:52 41.11754 2.71341 16790 ft 405 kts 102°
2026-05-06 08:52 41.11296 2.75003 17322 ft 410 kts 103°
2026-05-06 08:52 41.10827 2.78752 17840 ft 415 kts 103°
2026-05-06 08:52 41.10353 2.82543 18348 ft 419 kts 103°
2026-05-06 08:53 41.09876 2.86370 18812 ft 423 kts 103°
2026-05-06 08:53 41.09392 2.90238 19281 ft 426 kts 103°
2026-05-06 08:53 41.08903 2.94129 19799 ft 428 kts 103°
2026-05-06 08:53 41.08413 2.97991 20272 ft 430 kts 104°
2026-05-06 08:54 41.07908 3.01941 20757 ft 433 kts 104°
2026-05-06 08:54 41.07401 3.05886 21221 ft 436 kts 104°
2026-05-06 08:54 41.06893 3.09853 21692 ft 438 kts 104°
2026-05-06 08:54 41.06384 3.13849 22145 ft 441 kts 104°
2026-05-06 08:55 41.05870 3.17870 22599 ft 444 kts 104°
2026-05-06 08:55 41.05349 3.21910 23042 ft 446 kts 104°
2026-05-06 08:55 41.04822 3.25976 23475 ft 449 kts 104°
2026-05-06 08:55 41.04290 3.30064 23843 ft 452 kts 104°
2026-05-06 08:56 41.03761 3.34120 24195 ft 454 kts 104°
2026-05-06 08:56 41.03220 3.38252 24551 ft 456 kts 104°
2026-05-06 08:56 41.02678 3.42401 24898 ft 459 kts 105°
2026-05-06 08:56 41.02130 3.46578 25240 ft 461 kts 105°
2026-05-06 08:57 41.01577 3.50768 25569 ft 463 kts 105°
2026-05-06 08:57 41.01019 3.54980 25909 ft 466 kts 105°
2026-05-06 08:57 41.00457 3.59213 26237 ft 468 kts 105°
2026-05-06 08:57 40.99893 3.63465 26563 ft 470 kts 105°
2026-05-06 08:58 40.99325 3.67740 26889 ft 473 kts 105°
2026-05-06 08:58 40.98753 3.72036 27210 ft 475 kts 105°
2026-05-06 08:58 40.98177 3.76348 27529 ft 477 kts 105°
2026-05-06 08:58 40.97596 3.80687 27834 ft 479 kts 105°
2026-05-06 08:59 40.97013 3.85032 28167 ft 481 kts 105°
2026-05-06 08:59 40.96428 3.89392 28491 ft 482 kts 105°
2026-05-06 08:59 40.95838 3.93772 28791 ft 484 kts 105°
2026-05-06 08:59 40.95241 3.98168 29073 ft 486 kts 106°
2026-05-06 09:00 40.94833 4.01149 29273 ft 488 kts 106°
2026-05-06 09:00 40.94228 4.05566 29541 ft 490 kts 106°
2026-05-06 09:00 40.93624 4.09961 29808 ft 492 kts 106°
2026-05-06 09:00 40.93007 4.14434 30069 ft 494 kts 106°
2026-05-06 09:01 40.92387 4.18918 30290 ft 496 kts 106°
2026-05-06 09:01 40.91771 4.23365 30544 ft 496 kts 106°
2026-05-06 09:01 40.91144 4.27905 30860 ft 495 kts 106°
2026-05-06 09:01 40.90535 4.32303 31198 ft 493 kts 106°
2026-05-06 09:02 40.89912 4.36770 31516 ft 493 kts 106°
2026-05-06 09:02 40.89287 4.41226 31830 ft 492 kts 106°
2026-05-06 09:02 40.88665 4.45666 32132 ft 492 kts 106°
2026-05-06 09:02 40.88040 4.50110 32434 ft 491 kts 106°
2026-05-06 09:03 40.87415 4.54547 32732 ft 491 kts 106°
2026-05-06 09:03 40.86788 4.58980 33009 ft 490 kts 106°
2026-05-06 09:03 40.86160 4.63391 33370 ft 488 kts 106°
2026-05-06 09:03 40.85539 4.67806 33692 ft 488 kts 105°
2026-05-06 09:04 40.85018 4.72240 33992 ft 489 kts 103°
2026-05-06 09:04 40.84597 4.76709 34244 ft 490 kts 101°
2026-05-06 09:04 40.84235 4.81196 34502 ft 490 kts 101°
2026-05-06 09:04 40.83888 4.85677 34744 ft 490 kts 101°
2026-05-06 09:05 40.83532 4.90112 34977 ft 490 kts 101°
2026-05-06 09:05 40.83146 4.94586 35202 ft 489 kts 102°
2026-05-06 09:05 40.82733 4.99036 35428 ft 488 kts 102°
2026-05-06 09:05 40.82304 5.03478 35666 ft 488 kts 102°
2026-05-06 09:06 40.81865 5.07930 35884 ft 487 kts 102°
2026-05-06 09:06 40.80999 5.16811 35988 ft 487 kts 102°
2026-05-06 09:07 40.80148 5.25666 35981 ft 486 kts 102°
2026-05-06 09:07 40.79290 5.34520 35962 ft 485 kts 102°
2026-05-06 09:08 40.78426 5.43355 35980 ft 484 kts 102°
2026-05-06 09:08 40.77566 5.52109 35977 ft 484 kts 102°
2026-05-06 09:09 40.76691 5.60920 35980 ft 484 kts 102°
2026-05-06 09:09 40.75808 5.69726 35997 ft 484 kts 102°
2026-05-06 09:10 40.74919 5.78513 35982 ft 483 kts 102°
2026-05-06 09:10 40.74026 5.87296 35989 ft 482 kts 102°
2026-05-06 09:11 40.73122 5.96061 35991 ft 481 kts 102°
2026-05-06 09:11 40.72219 6.04744 35995 ft 481 kts 102°
2026-05-06 09:12 40.71313 6.13482 35975 ft 480 kts 102°
2026-05-06 09:12 40.70395 6.22221 35985 ft 480 kts 102°
2026-05-06 09:13 40.69478 6.30923 35986 ft 479 kts 102°
2026-05-06 09:13 40.68553 6.39623 35991 ft 479 kts 102°
2026-05-06 09:14 40.67619 6.48317 35974 ft 479 kts 102°
2026-05-06 09:14 40.66681 6.56953 35982 ft 478 kts 102°
2026-05-06 09:15 40.65736 6.65611 35987 ft 478 kts 102°
2026-05-06 09:15 40.64787 6.74264 35987 ft 477 kts 103°
2026-05-06 09:16 40.63830 6.82919 35987 ft 477 kts 103°
2026-05-06 09:16 40.62868 6.91566 35964 ft 478 kts 103°
2026-05-06 09:17 40.61893 7.00223 35968 ft 479 kts 103°
2026-05-06 09:17 40.60914 7.08890 35973 ft 479 kts 103°
2026-05-06 09:18 40.59929 7.17572 35971 ft 480 kts 103°
2026-05-06 09:18 40.58942 7.26196 35976 ft 480 kts 103°
2026-05-06 09:19 40.57942 7.34890 35981 ft 480 kts 104°
2026-05-06 09:19 40.56938 7.43572 35986 ft 480 kts 104°
2026-05-06 09:20 40.56739 7.52404 35990 ft 490 kts 87°
2026-05-06 09:20 40.57530 7.61309 35975 ft 490 kts 87°
2026-05-06 09:21 40.58299 7.70222 35979 ft 491 kts 88°
2026-05-06 09:21 40.59060 7.79157 35989 ft 491 kts 88°
2026-05-06 09:22 40.59809 7.88032 35991 ft 491 kts 88°
2026-05-06 09:22 40.60553 7.96990 35971 ft 491 kts 88°
2026-05-06 09:23 40.61296 8.05920 35975 ft 491 kts 88°
2026-05-06 09:23 40.62039 8.14861 35982 ft 491 kts 88°
2026-05-06 09:24 40.62827 8.23799 35989 ft 493 kts 83°
2026-05-06 09:24 40.64594 8.32503 35982 ft 496 kts 77°
2026-05-06 09:25 40.66493 8.41229 35970 ft 496 kts 77°
2026-05-06 09:25 40.68371 8.49963 35997 ft 495 kts 77°
2026-05-06 09:26 40.70241 8.58673 35997 ft 495 kts 77°
2026-05-06 09:26 40.72118 8.67416 35995 ft 495 kts 77°
2026-05-06 09:27 40.73990 8.76144 35974 ft 495 kts 77°
2026-05-06 09:27 40.75850 8.84873 35977 ft 494 kts 77°
2026-05-06 09:28 40.77701 8.93616 35978 ft 494 kts 77°
2026-05-06 09:28 40.79545 9.02350 35991 ft 494 kts 78°
2026-05-06 09:29 40.81371 9.11039 35971 ft 494 kts 77°
2026-05-06 09:29 40.83217 9.19846 35971 ft 495 kts 77°
2026-05-06 09:30 40.85039 9.28563 35969 ft 495 kts 77°
2026-05-06 09:30 40.86856 9.37346 35969 ft 495 kts 77°
2026-05-06 09:31 40.88669 9.46122 35965 ft 495 kts 77°
2026-05-06 09:31 40.90463 9.54829 35970 ft 493 kts 77°
2026-05-06 09:32 40.92260 9.63587 35989 ft 492 kts 77°
2026-05-06 09:32 40.94049 9.72338 36006 ft 492 kts 77°
2026-05-06 09:33 40.95827 9.81072 35982 ft 492 kts 77°
2026-05-06 09:33 40.97592 9.89824 35974 ft 492 kts 77°
2026-05-06 09:34 40.99346 9.98564 35994 ft 491 kts 77°
2026-05-06 09:34 41.01086 10.07245 35993 ft 491 kts 77°
2026-05-06 09:35 41.02837 10.15981 35997 ft 491 kts 77°
2026-05-06 09:35 41.04586 10.24751 36319 ft 490 kts 77°
2026-05-06 09:35 41.05451 10.29111 36596 ft 489 kts 77°
2026-05-06 09:36 41.06309 10.33458 36856 ft 487 kts 78°
2026-05-06 09:36 41.07162 10.37797 36984 ft 486 kts 78°
2026-05-06 09:36 41.08017 10.42138 36992 ft 486 kts 78°
2026-05-06 09:37 41.09703 10.50733 36989 ft 485 kts 78°
2026-05-06 09:37 41.11395 10.59390 36986 ft 485 kts 78°
2026-05-06 09:38 41.13081 10.68045 36998 ft 485 kts 78°
2026-05-06 09:38 41.14762 10.76707 36998 ft 485 kts 78°
2026-05-06 09:39 41.16439 10.85377 37002 ft 485 kts 78°
2026-05-06 09:39 41.18107 10.94059 37010 ft 485 kts 78°
2026-05-06 09:40 41.19767 11.02745 37008 ft 485 kts 78°
2026-05-06 09:40 41.22238 11.15718 37010 ft 485 kts 78°
2026-05-06 09:41 41.23882 11.24428 37021 ft 485 kts 79°
2026-05-06 09:41 41.25521 11.33126 36998 ft 485 kts 78°
2026-05-06 09:42 41.27147 11.41776 36994 ft 486 kts 79°
2026-05-06 09:42 41.28771 11.50512 36999 ft 486 kts 79°
2026-05-06 09:43 41.30397 11.59247 37003 ft 486 kts 79°
2026-05-06 09:43 41.32005 11.67936 36989 ft 486 kts 79°
2026-05-06 09:44 41.33610 11.76678 37014 ft 486 kts 79°
2026-05-06 09:44 41.35209 11.85423 37016 ft 486 kts 79°
2026-05-06 09:45 41.36801 11.94163 37041 ft 486 kts 79°
2026-05-06 09:45 41.38394 12.02913 37036 ft 486 kts 79°
2026-05-06 09:46 41.39974 12.11653 37025 ft 485 kts 79°
2026-05-06 09:46 41.41545 12.20376 37032 ft 484 kts 79°
2026-05-06 09:47 41.43103 12.29093 37030 ft 483 kts 79°
2026-05-06 09:47 41.44651 12.37801 37034 ft 483 kts 80°
2026-05-06 09:48 41.46189 12.46450 37017 ft 482 kts 79°
2026-05-06 09:48 41.47732 12.55145 37032 ft 481 kts 79°
2026-05-06 09:49 41.49256 12.63822 37042 ft 480 kts 80°
2026-05-06 09:49 41.50770 12.72498 37046 ft 480 kts 80°
2026-05-06 09:50 41.52019 12.79702 37030 ft 479 kts 79°
2026-05-06 09:50 41.53519 12.88357 37044 ft 478 kts 80°
2026-05-06 09:51 41.55179 12.98400 37042 ft 476 kts 81°
2026-05-06 09:51 41.56270 13.05654 37047 ft 475 kts 82°
2026-05-06 09:52 41.57540 13.14306 37042 ft 474 kts 82°
2026-05-06 09:52 41.58823 13.22956 37068 ft 474 kts 81°
2026-05-06 09:53 41.60120 13.31520 37072 ft 473 kts 81°
2026-05-06 09:53 41.61413 13.40146 37072 ft 473 kts 81°
2026-05-06 09:54 41.62685 13.48764 37075 ft 473 kts 82°
2026-05-06 09:54 41.63960 13.57411 37057 ft 473 kts 81°
2026-05-06 09:55 41.65222 13.66032 37047 ft 472 kts 82°
2026-05-06 09:55 41.66476 13.74600 37047 ft 472 kts 82°
2026-05-06 09:56 41.67724 13.83225 37045 ft 473 kts 82°
2026-05-06 09:56 41.68965 13.91856 37020 ft 473 kts 81°
2026-05-06 09:57 41.70212 14.00513 37008 ft 474 kts 81°
2026-05-06 09:57 41.71453 14.09183 37002 ft 475 kts 82°
2026-05-06 09:58 41.72686 14.17869 37018 ft 475 kts 82°
2026-05-06 09:58 41.73903 14.26565 36992 ft 475 kts 82°
2026-05-06 09:59 41.75118 14.35253 37003 ft 474 kts 81°
2026-05-06 09:59 41.76337 14.43927 37001 ft 474 kts 82°
2026-05-06 10:00 41.77539 14.52614 36991 ft 474 kts 82°
2026-05-06 10:00 41.78732 14.61300 36990 ft 474 kts 82°
2026-05-06 10:01 41.79908 14.69933 36990 ft 474 kts 82°
2026-05-06 10:01 41.81090 14.78624 36990 ft 474 kts 82°
2026-05-06 10:02 41.82272 14.87313 36977 ft 473 kts 82°
2026-05-06 10:02 41.83444 14.95998 36967 ft 473 kts 82°
2026-05-06 10:03 41.84605 15.04695 36968 ft 474 kts 82°
2026-05-06 10:03 41.85757 15.13396 36971 ft 474 kts 82°
2026-05-06 10:04 41.86906 15.22104 36981 ft 474 kts 82°
2026-05-06 10:04 41.88052 15.30820 36974 ft 474 kts 82°
2026-05-06 10:05 41.89192 15.39549 36998 ft 474 kts 82°
2026-05-06 10:05 41.90323 15.48230 37012 ft 475 kts 82°
2026-05-06 10:06 41.91459 15.56959 37026 ft 475 kts 82°
2026-05-06 10:06 41.92568 15.65698 37020 ft 475 kts 82°
2026-05-06 10:07 41.93670 15.74445 37043 ft 475 kts 82°
2026-05-06 10:07 41.94774 15.83189 37039 ft 475 kts 82°
2026-05-06 10:08 41.95877 15.91949 37037 ft 475 kts 82°
2026-05-06 10:08 41.96973 16.00706 36999 ft 475 kts 82°
2026-05-06 10:09 41.98065 16.09467 37011 ft 475 kts 82°
2026-05-06 10:09 41.99147 16.18224 37017 ft 475 kts 82°
2026-05-06 10:10 42.00222 16.26989 37022 ft 475 kts 82°
2026-05-06 10:10 42.01285 16.35699 37016 ft 475 kts 82°
2026-05-06 10:11 42.02345 16.44454 37021 ft 474 kts 82°
2026-05-06 10:11 42.03396 16.53207 37043 ft 474 kts 82°
2026-05-06 10:12 42.04435 16.61956 37037 ft 474 kts 82°
2026-05-06 10:12 42.05474 16.70720 37032 ft 474 kts 82°
2026-05-06 10:13 42.06497 16.79481 37043 ft 474 kts 82°
2026-05-06 10:13 42.07012 16.83862 36851 ft 474 kts 82°
2026-05-06 10:13 42.07528 16.88242 36585 ft 473 kts 82°
2026-05-06 10:14 42.08042 16.92619 36329 ft 474 kts 82°
2026-05-06 10:14 42.08550 16.96996 36071 ft 474 kts 82°
2026-05-06 10:14 42.09055 17.01387 35479 ft 477 kts 82°
2026-05-06 10:14 42.09567 17.05824 34574 ft 482 kts 82°
2026-05-06 10:15 42.10084 17.10317 33571 ft 488 kts 82°
2026-05-06 10:15 42.10601 17.14845 32816 ft 488 kts 82°
2026-05-06 10:15 42.11109 17.19332 32253 ft 483 kts 82°
2026-05-06 10:15 42.11612 17.23795 31614 ft 480 kts 82°
2026-05-06 10:16 42.12109 17.28233 30993 ft 478 kts 82°
2026-05-06 10:16 42.12597 17.32598 30380 ft 475 kts 82°
2026-05-06 10:16 42.13089 17.36995 29727 ft 473 kts 82°
2026-05-06 10:16 42.13579 17.41355 29113 ft 469 kts 82°
2026-05-06 10:17 42.14065 17.45686 28520 ft 465 kts 82°
2026-05-06 10:17 42.14543 17.49979 27929 ft 461 kts 82°
2026-05-06 10:17 42.15012 17.54230 27350 ft 457 kts 82°
2026-05-06 10:17 42.15476 17.58453 26789 ft 454 kts 82°
2026-05-06 10:18 42.15938 17.62649 26241 ft 450 kts 82°
2026-05-06 10:18 42.16395 17.66800 25707 ft 446 kts 82°
2026-05-06 10:18 42.16849 17.70926 25179 ft 443 kts 82°
2026-05-06 10:18 42.17297 17.75020 24656 ft 439 kts 82°
2026-05-06 10:19 42.17736 17.79077 24145 ft 436 kts 82°
2026-05-06 10:19 42.18169 17.83105 23625 ft 433 kts 82°
2026-05-06 10:19 42.18594 17.87061 23072 ft 430 kts 82°
2026-05-06 10:19 42.19020 17.91030 22566 ft 425 kts 82°
2026-05-06 10:20 42.19440 17.94965 22052 ft 422 kts 82°
2026-05-06 10:20 42.19853 17.98854 21541 ft 419 kts 82°
2026-05-06 10:20 42.20264 18.02730 21028 ft 416 kts 82°
2026-05-06 10:20 42.20675 18.06583 20510 ft 414 kts 82°
2026-05-06 10:21 42.21083 18.10415 19980 ft 412 kts 82°
2026-05-06 10:21 42.21487 18.14243 19457 ft 411 kts 82°
2026-05-06 10:21 42.21885 18.18043 18941 ft 409 kts 82°
2026-05-06 10:21 42.22284 18.21840 18477 ft 406 kts 82°
2026-05-06 10:22 42.22678 18.25602 17928 ft 404 kts 82°
2026-05-06 10:22 42.23066 18.29332 17490 ft 399 kts 82°
2026-05-06 10:22 42.23449 18.33026 16977 ft 396 kts 82°
2026-05-06 10:22 42.23823 18.36678 16381 ft 389 kts 83°
2026-05-06 10:23 42.24194 18.40277 15761 ft 378 kts 83°
2026-05-06 10:23 42.24543 18.43683 15315 ft 363 kts 83°
2026-05-06 10:23 42.24883 18.47000 14868 ft 350 kts 83°
2026-05-06 10:23 42.25209 18.50200 14442 ft 339 kts 83°
2026-05-06 10:24 42.25524 18.53308 14022 ft 329 kts 83°
2026-05-06 10:24 42.25830 18.56348 13580 ft 327 kts 84°
2026-05-06 10:24 42.26130 18.59351 13155 ft 327 kts 83°
2026-05-06 10:24 42.26435 18.62397 12724 ft 327 kts 83°
2026-05-06 10:25 42.26741 18.65451 12297 ft 327 kts 84°
2026-05-06 10:25 42.27049 18.68507 11864 ft 329 kts 84°
2026-05-06 10:25 42.27360 18.71583 11424 ft 332 kts 84°
2026-05-06 10:25 42.27667 18.74676 10968 ft 333 kts 85°
2026-05-06 10:26 42.27897 18.77783 10528 ft 331 kts 93°
2026-05-06 10:26 42.27636 18.80828 10221 ft 322 kts 105°
2026-05-06 10:26 42.26900 18.83598 10100 ft 307 kts 118°
2026-05-06 10:26 42.25972 18.86142 9943 ft 298 kts 120°
2026-05-06 10:27 42.25071 18.88629 9573 ft 292 kts 118°
2026-05-06 10:27 42.24194 18.91054 8902 ft 290 kts 118°
2026-05-06 10:27 42.23309 18.93493 8189 ft 289 kts 118°
2026-05-06 10:27 42.22425 18.95857 7870 ft 273 kts 124°
2026-05-06 10:28 42.21187 18.97613 7724 ft 248 kts 150°
2026-05-06 10:28 42.19631 18.98380 7606 ft 234 kts 175°
2026-05-06 10:28 42.18023 18.98166 7183 ft 236 kts 200°
2026-05-06 10:28 42.16627 18.97004 6768 ft 239 kts 222°
2026-05-06 10:29 42.15617 18.95213 6368 ft 244 kts 243°
2026-05-06 10:29 42.15207 18.92984 5974 ft 248 kts 267°
2026-05-06 10:29 42.15438 18.90712 5647 ft 249 kts 278°
2026-05-06 10:29 42.15831 18.88415 5300 ft 249 kts 288°
2026-05-06 10:30 42.16741 18.86473 4969 ft 252 kts 314°
2026-05-06 10:30 42.18195 18.85185 4629 ft 252 kts 338°
2026-05-06 10:30 42.19811 18.84356 4386 ft 246 kts 339°
2026-05-06 10:30 42.21425 18.83532 4066 ft 248 kts 339°
2026-05-06 10:31 42.23050 18.82707 3655 ft 252 kts 339°
2026-05-06 10:31 42.24712 18.81906 3270 ft 252 kts 342°
2026-05-06 10:31 42.26343 18.81206 2925 ft 240 kts 342°
2026-05-06 10:31 42.27894 18.80520 2657 ft 229 kts 341°
2026-05-06 10:32 42.29329 18.79845 2470 ft 211 kts 340°
2026-05-06 10:32 42.30648 18.79222 2276 ft 192 kts 339°
2026-05-06 10:32 42.31823 18.78610 2127 ft 168 kts 336°
2026-05-06 10:32 42.32864 18.78008 2027 ft 159 kts 336°
2026-05-06 10:33 42.33879 18.77416 1792 ft 162 kts 339°
2026-05-06 10:33 42.34907 18.76786 1517 ft 159 kts 338°
2026-05-06 10:33 42.35898 18.76136 1284 ft 158 kts 337°
2026-05-06 10:33 42.36884 18.75516 981 ft 154 kts 337°
2026-05-06 10:34 42.37848 18.74943 644 ft 150 kts 336°
2026-05-06 10:34 42.38731 18.74268 340 ft 146 kts 326°
2026-05-06 10:34 42.39535 18.73424 91 ft 147 kts 322°
2026-05-06 10:34 42.40267 18.72567 13 ft 114 kts 319°
2026-05-06 10:35 42.40712 18.72041 15 ft 70 kts 319°
2026-05-06 10:35 42.40927 18.71795 16 ft 15 kts 344°
2026-05-06 10:35 42.40995 18.71848 16 ft 1 kts 46°
2026-05-06 10:35 42.41002 18.71854 15 ft 0 kts 26°
2026-05-06 10:36 42.41026 18.71850 13 ft 10 kts 334°
2026-05-06 10:36 42.41087 18.71780 12 ft 11 kts 320°
2026-05-06 10:36 42.41143 18.71716 12 ft 10 kts 319°
2026-05-06 10:36 42.41192 18.71658 13 ft 8 kts 317°
2026-05-06 10:37 42.41226 18.71616 17 ft 5 kts 318°
2026-05-06 10:37 42.41269 18.71566 17 ft 17 kts 319°
2026-05-06 10:37 42.41326 18.71554 15 ft 7 kts 49°
2026-05-06 10:37 42.41328 18.71596 15 ft 2 kts 115°
2026-05-06 10:38 42.41314 18.71600 14 ft 3 kts 171°
2026-05-06 10:38 42.41302 18.71602 14 ft 0 kts 173°